Time,TemperatureF,DewpointF,PressureIn,WindDirection,WindDirectionDegrees,WindSpeedMPH,WindSpeedGustMPH,Humidity,HourlyPrecipIn,Conditions,Clouds,dailyrainin,SoftwareType,DateUTC
2013-03-21 00:00:00,9.5,0.7,29.55,NW,315,4.7,6.0,67,0.00,,,0.00,WUHU216HW,2013-03-21 05:00:00,
2013-03-21 00:05:00,9.4,0.5,29.55,NNW,338,4.7,6.3,67,0.00,,,0.00,WUHU216HW,2013-03-21 05:05:00,
2013-03-21 00:10:00,9.4,0.5,29.55,NNW,338,4.3,7.6,67,0.00,,,0.00,WUHU216HW,2013-03-21 05:10:00,
2013-03-21 00:15:00,9.2,0.7,29.55,NW,315,6.9,7.6,68,0.00,,,0.00,WUHU216HW,2013-03-21 05:15:00,
2013-03-21 00:20:00,9.2,0.7,29.55,NW,315,7.4,7.4,68,0.00,,,0.00,WUHU216HW,2013-03-21 05:20:00,
2013-03-21 00:25:00,9.2,1.1,29.55,NW,315,6.9,7.8,69,0.00,,,0.00,WUHU216HW,2013-03-21 05:25:00,
2013-03-21 00:30:00,9.4,0.9,29.55,WNW,293,5.1,7.8,68,0.00,,,0.00,WUHU216HW,2013-03-21 05:30:00,
2013-03-21 00:35:00,9.4,0.9,29.55,NW,315,7.6,8.7,68,0.00,,,0.00,WUHU216HW,2013-03-21 05:35:00,
2013-03-21 00:40:00,9.4,0.9,29.55,NW,315,5.8,8.7,68,0.00,,,0.00,WUHU216HW,2013-03-21 05:40:00,
2013-03-21 00:45:00,9.2,0.7,29.55,NW,315,5.1,7.6,68,0.00,,,0.00,WUHU216HW,2013-03-21 05:45:00,
2013-03-21 00:50:00,9.0,0.9,29.54,NW,315,3.1,6.7,69,0.00,,,0.00,WUHU216HW,2013-03-21 05:50:00,
2013-03-21 00:55:00,9.0,0.9,29.55,NW,315,4.0,8.5,69,0.00,,,0.00,WUHU216HW,2013-03-21 05:55:00,
2013-03-21 01:00:00,9.0,0.9,29.55,NW,315,3.8,8.5,69,0.00,,,0.00,WUHU216HW,2013-03-21 06:00:00,
2013-03-21 01:05:00,9.0,0.9,29.54,NW,315,6.3,8.3,69,0.00,,,0.00,WUHU216HW,2013-03-21 06:05:00,
2013-03-21 01:10:00,8.8,1.1,29.54,NW,315,4.0,6.3,70,0.00,,,0.00,WUHU216HW,2013-03-21 06:10:00,
2013-03-21 01:15:00,8.6,0.5,29.54,NW,315,4.0,6.0,69,0.00,,,0.00,WUHU216HW,2013-03-21 06:15:00,
2013-03-21 01:20:00,8.6,0.9,29.55,NW,315,6.3,6.3,70,0.00,,,0.00,WUHU216HW,2013-03-21 06:20:00,
2013-03-21 01:25:00,8.6,0.9,29.55,WNW,293,4.5,7.2,70,0.00,,,0.00,WUHU216HW,2013-03-21 06:25:00,
2013-03-21 01:30:00,8.6,0.9,29.55,NNW,338,3.4,7.2,70,0.00,,,0.00,WUHU216HW,2013-03-21 06:30:00,
2013-03-21 01:35:00,8.6,0.9,29.55,NNW,338,5.1,7.6,70,0.00,,,0.00,WUHU216HW,2013-03-21 06:35:00,
2013-03-21 01:40:00,8.6,0.9,29.55,NW,315,4.9,7.6,70,0.00,,,0.00,WUHU216HW,2013-03-21 06:40:00,
2013-03-21 01:45:00,8.5,0.7,29.55,NW,315,4.0,6.5,70,0.00,,,0.00,WUHU216HW,2013-03-21 06:45:00,
2013-03-21 01:50:00,8.3,0.5,29.54,NNW,338,3.8,6.5,70,0.00,,,0.00,WUHU216HW,2013-03-21 06:50:00,
2013-03-21 01:55:00,8.3,0.5,29.54,NW,315,4.9,6.5,70,0.00,,,0.00,WUHU216HW,2013-03-21 06:55:00,
2013-03-21 02:00:00,8.1,0.4,29.54,WNW,293,6.7,6.7,70,0.00,,,0.00,WUHU216HW,2013-03-21 07:00:00,
2013-03-21 02:05:00,7.9,0.2,29.54,NW,315,6.3,7.6,70,0.00,,,0.00,WUHU216HW,2013-03-21 07:05:00,
2013-03-21 02:10:00,7.9,0.2,29.54,WNW,293,3.6,7.6,70,0.00,,,0.00,WUHU216HW,2013-03-21 07:10:00,
2013-03-21 02:15:00,7.9,0.2,29.54,NW,315,6.0,6.5,70,0.00,,,0.00,WUHU216HW,2013-03-21 07:15:00,
2013-03-21 02:20:00,7.7,0.0,29.53,NW,315,3.8,6.0,70,0.00,,,0.00,WUHU216HW,2013-03-21 07:20:00,
2013-03-21 02:25:00,7.7,0.0,29.53,NW,315,4.0,6.0,70,0.00,,,0.00,WUHU216HW,2013-03-21 07:25:00,
2013-03-21 02:30:00,7.7,0.0,29.54,NNW,338,5.4,6.7,70,0.00,,,0.00,WUHU216HW,2013-03-21 07:30:00,
2013-03-21 02:35:00,7.6,-0.2,29.53,NW,315,4.0,6.7,70,0.00,,,0.00,WUHU216HW,2013-03-21 07:35:00,
2013-03-21 02:40:00,7.6,-0.2,29.53,NW,315,3.6,6.3,70,0.00,,,0.00,WUHU216HW,2013-03-21 07:40:00,
2013-03-21 02:45:00,7.6,-0.2,29.53,NW,315,5.4,5.4,70,0.00,,,0.00,WUHU216HW,2013-03-21 07:45:00,
2013-03-21 02:50:00,7.4,-0.4,29.53,NW,315,4.0,5.6,70,0.00,,,0.00,WUHU216HW,2013-03-21 07:50:00,
2013-03-21 02:55:00,7.6,-0.2,29.53,NNW,338,4.3,6.5,70,0.00,,,0.00,WUHU216HW,2013-03-21 07:55:00,
2013-03-21 03:00:00,7.6,-0.2,29.52,NW,315,4.5,6.5,70,0.00,,,0.00,WUHU216HW,2013-03-21 08:00:00,
2013-03-21 03:05:00,7.6,0.1,29.52,North,0,3.6,8.1,71,0.00,,,0.00,WUHU216HW,2013-03-21 08:05:00,
2013-03-21 03:10:00,7.6,0.1,29.52,NNW,338,3.4,8.1,71,0.00,,,0.00,WUHU216HW,2013-03-21 08:10:00,
2013-03-21 03:15:00,7.7,0.3,29.52,NNW,338,6.5,6.5,71,0.00,,,0.00,WUHU216HW,2013-03-21 08:15:00,
2013-03-21 03:20:00,7.7,0.3,29.52,WNW,293,4.7,6.5,71,0.00,,,0.00,WUHU216HW,2013-03-21 08:20:00,
2013-03-21 03:25:00,7.7,0.3,29.52,NW,315,5.1,6.5,71,0.00,,,0.00,WUHU216HW,2013-03-21 08:25:00,
2013-03-21 03:30:00,7.6,0.1,29.52,NW,315,4.9,5.4,71,0.00,,,0.00,WUHU216HW,2013-03-21 08:30:00,
2013-03-21 03:35:00,7.6,0.1,29.53,NW,315,6.3,6.3,71,0.00,,,0.00,WUHU216HW,2013-03-21 08:35:00,
2013-03-21 03:40:00,7.6,0.1,29.52,NNW,338,5.4,7.8,71,0.00,,,0.00,WUHU216HW,2013-03-21 08:40:00,
2013-03-21 03:45:00,7.6,0.1,29.52,NW,315,7.6,7.8,71,0.00,,,0.00,WUHU216HW,2013-03-21 08:45:00,
2013-03-21 03:50:00,7.4,-0.1,29.52,NW,315,5.4,7.6,71,0.00,,,0.00,WUHU216HW,2013-03-21 08:50:00,
2013-03-21 03:55:00,7.4,-0.1,29.52,NNW,338,4.5,7.6,71,0.00,,,0.00,WUHU216HW,2013-03-21 08:55:00,
2013-03-21 04:00:00,7.4,-0.1,29.52,NW,315,4.0,7.6,71,0.00,,,0.00,WUHU216HW,2013-03-21 09:00:00,
2013-03-21 04:05:00,7.4,-0.1,29.52,NNW,338,5.6,6.3,71,0.00,,,0.00,WUHU216HW,2013-03-21 09:05:00,
2013-03-21 04:10:00,7.6,0.4,29.52,NNW,338,8.7,8.9,72,0.00,,,0.00,WUHU216HW,2013-03-21 09:10:00,
2013-03-21 04:15:00,7.6,0.4,29.52,NW,315,8.5,8.9,72,0.00,,,0.00,WUHU216HW,2013-03-21 09:15:00,
2013-03-21 04:20:00,7.7,0.5,29.52,NNW,338,7.4,8.7,72,0.00,,,0.00,WUHU216HW,2013-03-21 09:20:00,
2013-03-21 04:25:00,7.7,0.5,29.52,NNW,338,4.5,7.6,72,0.00,,,0.00,WUHU216HW,2013-03-21 09:25:00,
2013-03-21 04:30:00,7.7,0.5,29.52,NNW,338,3.1,7.6,72,0.00,,,0.00,WUHU216HW,2013-03-21 09:30:00,
2013-03-21 04:35:00,7.9,0.7,29.52,NNW,338,4.0,7.2,72,0.00,,,0.00,WUHU216HW,2013-03-21 09:35:00,
2013-03-21 04:40:00,7.9,0.7,29.52,NW,315,4.7,6.9,72,0.00,,,0.00,WUHU216HW,2013-03-21 09:40:00,
2013-03-21 04:45:00,8.1,0.9,29.51,NW,315,5.1,6.3,72,0.00,,,0.00,WUHU216HW,2013-03-21 09:45:00,
2013-03-21 04:50:00,8.1,0.9,29.51,WNW,293,5.6,7.6,72,0.00,,,0.00,WUHU216HW,2013-03-21 09:50:00,
2013-03-21 04:55:00,8.1,0.9,29.51,NW,315,7.8,7.8,72,0.00,,,0.00,WUHU216HW,2013-03-21 09:55:00,
2013-03-21 05:00:00,8.1,0.9,29.51,NW,315,5.1,8.5,72,0.00,,,0.00,WUHU216HW,2013-03-21 10:00:00,
2013-03-21 05:05:00,8.1,0.9,29.51,NNW,338,4.3,8.5,72,0.00,,,0.00,WUHU216HW,2013-03-21 10:05:00,
2013-03-21 05:10:00,8.1,1.3,29.51,West,270,6.9,8.3,73,0.00,,,0.00,WUHU216HW,2013-03-21 10:10:00,
2013-03-21 05:15:00,8.1,1.3,29.51,WNW,293,5.1,7.4,73,0.00,,,0.00,WUHU216HW,2013-03-21 10:15:00,
2013-03-21 05:20:00,7.9,1.1,29.51,NW,315,4.3,7.4,73,0.00,,,0.00,WUHU216HW,2013-03-21 10:20:00,
2013-03-21 05:25:00,7.9,0.7,29.51,NNW,338,6.3,6.5,72,0.00,,,0.00,WUHU216HW,2013-03-21 10:25:00,
2013-03-21 05:30:00,7.7,0.9,29.51,NW,315,7.4,9.8,73,0.00,,,0.00,WUHU216HW,2013-03-21 10:30:00,
2013-03-21 05:35:00,7.7,0.9,29.51,NW,315,6.0,9.8,73,0.00,,,0.00,WUHU216HW,2013-03-21 10:35:00,
2013-03-21 05:40:00,7.7,0.9,29.51,NW,315,8.3,8.7,73,0.00,,,0.00,WUHU216HW,2013-03-21 10:40:00,
2013-03-21 05:45:00,7.7,0.9,29.51,NW,315,6.0,8.7,73,0.00,,,0.00,WUHU216HW,2013-03-21 10:45:00,
2013-03-21 05:50:00,7.7,1.2,29.52,NW,315,6.0,8.5,74,0.00,,,0.00,WUHU216HW,2013-03-21 10:50:00,
2013-03-21 05:55:00,7.9,1.4,29.52,NW,315,6.9,6.9,74,0.00,,,0.00,WUHU216HW,2013-03-21 10:55:00,
2013-03-21 06:00:00,7.7,1.2,29.52,WNW,293,5.8,7.2,74,0.00,,,0.00,WUHU216HW,2013-03-21 11:00:00,
2013-03-21 06:05:00,7.7,1.2,29.52,NNW,338,7.4,9.2,74,0.00,,,0.00,WUHU216HW,2013-03-21 11:05:00,
2013-03-21 06:10:00,7.9,1.4,29.52,NNW,338,6.5,9.2,74,0.00,,,0.00,WUHU216HW,2013-03-21 11:10:00,
2013-03-21 06:15:00,7.9,1.4,29.52,NNW,338,8.1,8.5,74,0.00,,,0.00,WUHU216HW,2013-03-21 11:15:00,
2013-03-21 06:20:00,7.9,1.4,29.52,NW,315,4.7,8.5,74,0.00,,,0.00,WUHU216HW,2013-03-21 11:20:00,
2013-03-21 06:25:00,7.9,1.6,29.52,NNW,338,6.0,8.1,75,0.00,,,0.00,WUHU216HW,2013-03-21 11:25:00,
2013-03-21 06:30:00,7.9,1.6,29.52,NNW,338,5.6,7.4,75,0.00,,,0.00,WUHU216HW,2013-03-21 11:30:00,
2013-03-21 06:35:00,7.9,1.4,29.53,NW,315,5.6,7.4,74,0.00,,,0.00,WUHU216HW,2013-03-21 11:35:00,
2013-03-21 06:40:00,7.7,1.4,29.52,NNW,338,7.2,7.4,75,0.00,,,0.00,WUHU216HW,2013-03-21 11:40:00,
2013-03-21 06:45:00,7.7,1.4,29.52,NW,315,5.4,8.3,75,0.00,,,0.00,WUHU216HW,2013-03-21 11:45:00,
2013-03-21 06:50:00,7.7,1.4,29.52,NW,315,3.4,8.3,75,0.00,,,0.00,WUHU216HW,2013-03-21 11:50:00,
2013-03-21 06:55:00,7.6,1.3,29.52,West,270,6.3,8.3,75,0.00,,,0.00,WUHU216HW,2013-03-21 11:55:00,
2013-03-21 07:00:00,7.6,1.3,29.52,WNW,293,6.7,9.6,75,0.00,,,0.00,WUHU216HW,2013-03-21 12:00:00,
2013-03-21 07:05:00,7.7,1.4,29.52,NW,315,5.4,9.6,75,0.00,,,0.00,WUHU216HW,2013-03-21 12:05:00,
2013-03-21 07:10:00,7.6,1.3,29.52,NW,315,6.5,8.5,75,0.00,,,0.00,WUHU216HW,2013-03-21 12:10:00,
2013-03-21 07:15:00,7.6,1.3,29.53,West,270,4.9,7.2,75,0.00,,,0.00,WUHU216HW,2013-03-21 12:15:00,
2013-03-21 07:20:00,7.7,1.4,29.53,NNW,338,5.4,6.9,75,0.00,,,0.00,WUHU216HW,2013-03-21 12:20:00,
2013-03-21 07:25:00,7.7,1.7,29.53,NNW,338,4.5,6.3,76,0.00,,,0.00,WUHU216HW,2013-03-21 12:25:00,
2013-03-21 07:30:00,7.9,1.9,29.52,NNW,338,6.3,7.6,76,0.00,,,0.00,WUHU216HW,2013-03-21 12:30:00,
2013-03-21 07:35:00,8.1,1.8,29.52,NW,315,7.6,9.4,75,0.00,,,0.00,WUHU216HW,2013-03-21 12:35:00,
2013-03-21 07:40:00,8.3,2.3,29.52,WNW,293,4.7,9.4,76,0.00,,,0.00,WUHU216HW,2013-03-21 12:40:00,
2013-03-21 07:45:00,8.6,2.6,29.52,NW,315,5.4,7.6,76,0.00,,,0.00,WUHU216HW,2013-03-21 12:45:00,
2013-03-21 07:50:00,9.0,2.7,29.52,NW,315,6.0,7.6,75,0.00,,,0.00,WUHU216HW,2013-03-21 12:50:00,
2013-03-21 07:55:00,9.2,2.8,29.52,WNW,293,7.6,7.6,75,0.00,,,0.00,WUHU216HW,2013-03-21 12:55:00,
2013-03-21 08:00:00,9.4,3.0,29.52,NW,315,6.3,7.6,75,0.00,,,0.00,WUHU216HW,2013-03-21 13:00:00,
2013-03-21 08:05:00,9.7,3.3,29.52,WNW,293,7.8,7.8,75,0.00,,,0.00,WUHU216HW,2013-03-21 13:05:00,
2013-03-21 08:10:00,9.9,3.5,29.52,WNW,293,5.4,8.5,75,0.00,,,0.00,WUHU216HW,2013-03-21 13:10:00,
2013-03-21 08:15:00,10.3,3.8,29.53,NW,315,6.3,8.5,75,0.00,,,0.00,WUHU216HW,2013-03-21 13:15:00,
2013-03-21 08:20:00,10.4,3.7,29.52,NW,315,9.2,9.2,74,0.00,,,0.00,WUHU216HW,2013-03-21 13:20:00,
2013-03-21 08:25:00,10.4,3.7,29.53,NW,315,8.5,9.2,74,0.00,,,0.00,WUHU216HW,2013-03-21 13:25:00,
2013-03-21 08:30:00,10.6,3.9,29.53,WNW,293,5.6,9.8,74,0.00,,,0.00,WUHU216HW,2013-03-21 13:30:00,
2013-03-21 08:35:00,10.8,4.1,29.53,WNW,293,10.3,11.4,74,0.00,,,0.00,WUHU216HW,2013-03-21 13:35:00,
2013-03-21 08:40:00,10.8,3.8,29.53,NNW,338,7.6,11.4,73,0.00,,,0.00,WUHU216HW,2013-03-21 13:40:00,
2013-03-21 08:45:00,11.0,4.0,29.53,WNW,293,6.5,14.8,73,0.00,,,0.00,WUHU216HW,2013-03-21 13:45:00,
2013-03-21 08:50:00,11.2,4.2,29.53,NNW,338,6.0,14.8,73,0.00,,,0.00,WUHU216HW,2013-03-21 13:50:00,
2013-03-21 08:55:00,11.5,4.5,29.53,WNW,293,11.4,11.4,73,0.00,,,0.00,WUHU216HW,2013-03-21 13:55:00,
2013-03-21 09:00:00,11.9,4.9,29.53,NW,315,11.2,11.4,73,0.00,,,0.00,WUHU216HW,2013-03-21 14:00:00,
2013-03-21 09:05:00,12.1,5.3,29.53,NW,315,6.9,11.4,74,0.00,,,0.00,WUHU216HW,2013-03-21 14:05:00,
2013-03-21 09:10:00,12.6,5.9,29.53,WNW,293,8.7,11.2,74,0.00,,,0.00,WUHU216HW,2013-03-21 14:10:00,
2013-03-21 09:15:00,12.8,5.8,29.54,NW,315,6.0,9.8,73,0.00,,,0.00,WUHU216HW,2013-03-21 14:15:00,
2013-03-21 09:20:00,13.3,6.3,29.54,NW,315,6.0,9.8,73,0.00,,,0.00,WUHU216HW,2013-03-21 14:20:00,
2013-03-21 09:25:00,13.5,6.5,29.54,West,270,7.8,8.9,73,0.00,,,0.00,WUHU216HW,2013-03-21 14:25:00,
2013-03-21 09:30:00,14.0,6.7,29.54,West,270,10.3,12.1,72,0.00,,,0.00,WUHU216HW,2013-03-21 14:30:00,
2013-03-21 09:35:00,14.4,6.8,29.54,NW,315,7.4,12.1,71,0.00,,,0.00,WUHU216HW,2013-03-21 14:35:00,
2013-03-21 09:40:00,14.8,7.0,29.54,WNW,293,6.3,10.3,71,0.00,,,0.00,WUHU216HW,2013-03-21 14:40:00,
2013-03-21 09:45:00,14.9,7.2,29.54,NW,315,8.5,8.5,71,0.00,,,0.00,WUHU216HW,2013-03-21 14:45:00,
2013-03-21 09:50:00,15.5,7.8,29.54,NW,315,7.6,13.0,71,0.00,,,0.00,WUHU216HW,2013-03-21 14:50:00,
2013-03-21 09:55:00,15.8,8.0,29.54,NNW,338,5.8,13.0,71,0.00,,,0.00,WUHU216HW,2013-03-21 14:55:00,
2013-03-21 10:00:00,16.6,8.7,29.55,NW,315,6.9,8.5,71,0.00,,,0.00,WUHU216HW,2013-03-21 15:00:00,
2013-03-21 10:05:00,16.9,9.1,29.55,WNW,293,6.0,8.5,71,0.00,,,0.00,WUHU216HW,2013-03-21 15:05:00,
2013-03-21 10:10:00,17.5,9.4,29.55,WNW,293,7.6,7.6,70,0.00,,,0.00,WUHU216HW,2013-03-21 15:10:00,
2013-03-21 10:15:00,17.6,9.2,29.55,West,270,7.8,7.8,69,0.00,,,0.00,WUHU216HW,2013-03-21 15:15:00,
2013-03-21 10:20:00,17.8,9.4,29.55,WNW,293,6.3,8.5,69,0.00,,,0.00,WUHU216HW,2013-03-21 15:20:00,
2013-03-21 10:25:00,18.4,9.8,29.55,WNW,293,10.1,10.1,69,0.00,,,0.00,WUHU216HW,2013-03-21 15:25:00,
2013-03-21 10:30:00,18.5,10.0,29.55,NW,315,8.3,11.0,69,0.00,,,0.00,WUHU216HW,2013-03-21 15:30:00,
2013-03-21 10:35:00,19.1,10.2,29.55,NNW,338,5.4,11.0,68,0.00,,,0.00,WUHU216HW,2013-03-21 15:35:00,
2013-03-21 10:40:00,19.4,10.4,29.55,NW,315,8.1,8.5,68,0.00,,,0.00,WUHU216HW,2013-03-21 15:40:00,
2013-03-21 10:45:00,19.6,10.0,29.56,WNW,293,7.6,12.1,66,0.00,,,0.00,WUHU216HW,2013-03-21 15:45:00,
2013-03-21 10:50:00,20.5,11.3,29.55,WSW,248,8.7,12.1,67,0.00,,,0.00,WUHU216HW,2013-03-21 15:50:00,
2013-03-21 10:55:00,20.9,11.6,29.55,NNW,338,8.5,8.7,67,0.00,,,0.00,WUHU216HW,2013-03-21 15:55:00,
2013-03-21 11:00:00,21.2,11.6,29.55,WNW,293,8.3,8.7,66,0.00,,,0.00,WUHU216HW,2013-03-21 16:00:00,
2013-03-21 11:05:00,21.4,11.8,29.55,NW,315,6.3,8.5,66,0.00,,,0.00,WUHU216HW,2013-03-21 16:05:00,
2013-03-21 11:10:00,21.4,11.4,29.55,NNW,338,4.7,6.7,65,0.00,,,0.00,WUHU216HW,2013-03-21 16:10:00,
2013-03-21 11:15:00,21.6,11.6,29.55,North,0,7.6,7.6,65,0.00,,,0.00,WUHU216HW,2013-03-21 16:15:00,
2013-03-21 11:20:00,22.1,12.1,29.55,NNW,338,6.3,9.2,65,0.00,,,0.00,WUHU216HW,2013-03-21 16:20:00,
2013-03-21 11:25:00,22.9,12.4,29.55,NNW,338,9.4,10.7,64,0.00,,,0.00,WUHU216HW,2013-03-21 16:25:00,
2013-03-21 11:30:00,23.6,13.2,29.55,NNW,338,4.3,10.7,64,0.00,,,0.00,WUHU216HW,2013-03-21 16:30:00,
2013-03-21 11:35:00,23.8,13.3,29.55,NW,315,6.9,9.4,64,0.00,,,0.00,WUHU216HW,2013-03-21 16:35:00,
2013-03-21 11:40:00,23.8,13.3,29.55,NW,315,3.4,8.3,64,0.00,,,0.00,WUHU216HW,2013-03-21 16:40:00,
2013-03-21 11:45:00,23.4,13.0,29.55,NW,315,6.5,6.9,64,0.00,,,0.00,WUHU216HW,2013-03-21 16:45:00,
2013-03-21 11:50:00,23.6,12.8,29.55,NW,315,2.7,6.5,63,0.00,,,0.00,WUHU216HW,2013-03-21 16:50:00,
2013-03-21 11:55:00,23.6,13.2,29.55,NW,315,6.5,7.2,64,0.00,,,0.00,WUHU216HW,2013-03-21 16:55:00,
2013-03-21 12:00:00,23.9,13.2,29.55,NW,315,6.3,7.2,63,0.00,,,0.00,WUHU216HW,2013-03-21 17:00:00,
2013-03-21 12:05:00,23.8,13.0,29.55,NW,315,5.4,7.4,63,0.00,,,0.00,WUHU216HW,2013-03-21 17:05:00,
2013-03-21 12:10:00,23.8,13.0,29.55,NW,315,3.8,7.4,63,0.00,,,0.00,WUHU216HW,2013-03-21 17:10:00,
2013-03-21 12:15:00,24.8,14.0,29.55,NNW,338,4.0,8.1,63,0.00,,,0.00,WUHU216HW,2013-03-21 17:15:00,
2013-03-21 12:20:00,24.7,13.5,29.55,NW,315,6.0,12.1,62,0.00,,,0.00,WUHU216HW,2013-03-21 17:20:00,
2013-03-21 12:25:00,24.7,13.5,29.55,NNW,338,6.3,12.1,62,0.00,,,0.00,WUHU216HW,2013-03-21 17:25:00,
2013-03-21 12:30:00,24.7,13.5,29.55,NNW,338,4.7,10.5,62,0.00,,,0.00,WUHU216HW,2013-03-21 17:30:00,
2013-03-21 12:35:00,24.8,13.7,29.55,NNW,338,5.4,11.0,62,0.00,,,0.00,WUHU216HW,2013-03-21 17:35:00,
2013-03-21 12:40:00,24.8,13.7,29.55,North,0,4.5,11.0,62,0.00,,,0.00,WUHU216HW,2013-03-21 17:40:00,
2013-03-21 12:45:00,24.1,13.0,29.55,NNW,338,4.7,6.9,62,0.00,,,0.00,WUHU216HW,2013-03-21 17:45:00,
2013-03-21 12:50:00,24.1,13.0,29.55,NW,315,5.4,8.9,62,0.00,,,0.00,WUHU216HW,2013-03-21 17:50:00,
2013-03-21 12:55:00,24.1,13.3,29.55,NW,315,6.7,10.1,63,0.00,,,0.00,WUHU216HW,2013-03-21 17:55:00,
2013-03-21 13:00:00,24.1,13.0,29.55,NW,315,4.0,10.1,62,0.00,,,0.00,WUHU216HW,2013-03-21 18:00:00,
2013-03-21 13:05:00,24.7,13.2,29.55,NNW,338,4.3,6.7,61,0.00,,,0.00,WUHU216HW,2013-03-21 18:05:00,
2013-03-21 13:10:00,24.5,13.3,29.55,NW,315,3.6,6.3,62,0.00,,,0.00,WUHU216HW,2013-03-21 18:10:00,
2013-03-21 13:15:00,25.2,14.0,29.54,West,270,2.5,5.8,62,0.00,,,0.00,WUHU216HW,2013-03-21 18:15:00,
2013-03-21 13:20:00,26.6,15.3,29.54,West,270,6.5,6.9,62,0.00,,,0.00,WUHU216HW,2013-03-21 18:20:00,
2013-03-21 13:25:00,27.4,15.3,29.54,NW,315,4.7,7.4,60,0.00,,,0.00,WUHU216HW,2013-03-21 18:25:00,
2013-03-21 13:30:00,26.5,14.1,29.54,NW,315,4.9,7.4,59,0.00,,,0.00,WUHU216HW,2013-03-21 18:30:00,
2013-03-21 13:35:00,27.4,14.9,29.54,West,270,3.8,7.4,59,0.00,,,0.00,WUHU216HW,2013-03-21 18:35:00,
2013-03-21 13:40:00,27.9,15.4,29.54,NW,315,4.0,7.4,59,0.00,,,0.00,WUHU216HW,2013-03-21 18:40:00,
2013-03-21 13:45:00,27.5,14.2,29.53,NW,315,2.5,6.9,57,0.00,,,0.00,WUHU216HW,2013-03-21 18:45:00,
2013-03-21 13:50:00,27.9,15.4,29.53,NNW,338,3.8,6.3,59,0.00,,,0.00,WUHU216HW,2013-03-21 18:50:00,
2013-03-21 13:55:00,28.4,14.8,29.53,NW,315,6.9,6.9,56,0.00,,,0.00,WUHU216HW,2013-03-21 18:55:00,
2013-03-21 14:00:00,29.0,15.2,29.53,NW,315,8.5,8.5,56,0.00,,,0.00,WUHU216HW,2013-03-21 19:00:00,
2013-03-21 14:05:00,29.0,14.4,29.53,WNW,293,8.1,8.5,54,0.00,,,0.00,WUHU216HW,2013-03-21 19:05:00,
2013-03-21 14:10:00,28.3,13.7,29.53,WNW,293,6.7,8.5,54,0.00,,,0.00,WUHU216HW,2013-03-21 19:10:00,
2013-03-21 14:15:00,28.3,14.6,29.53,WSW,248,4.0,8.1,56,0.00,,,0.00,WUHU216HW,2013-03-21 19:15:00,
2013-03-21 14:20:00,28.4,13.9,29.53,NW,315,6.7,6.7,54,0.00,,,0.00,WUHU216HW,2013-03-21 19:20:00,
2013-03-21 14:25:00,28.4,14.8,29.52,WNW,293,6.3,11.6,56,0.00,,,0.00,WUHU216HW,2013-03-21 19:25:00,
2013-03-21 14:30:00,28.4,13.9,29.52,West,270,4.9,11.6,54,0.00,,,0.00,WUHU216HW,2013-03-21 19:30:00,
2013-03-21 14:35:00,28.4,14.3,29.52,WNW,293,7.2,8.1,55,0.00,,,0.00,WUHU216HW,2013-03-21 19:35:00,
2013-03-21 14:40:00,28.6,15.3,29.52,West,270,10.5,10.5,57,0.00,,,0.00,WUHU216HW,2013-03-21 19:40:00,
2013-03-21 14:45:00,28.3,14.6,29.52,NW,315,4.7,10.5,56,0.00,,,0.00,WUHU216HW,2013-03-21 19:45:00,
2013-03-21 14:50:00,28.4,14.8,29.52,NNW,338,3.6,10.5,56,0.00,,,0.00,WUHU216HW,2013-03-21 19:50:00,
2013-03-21 14:55:00,28.6,14.5,29.52,NW,315,6.7,8.3,55,0.00,,,0.00,WUHU216HW,2013-03-21 19:55:00,
2013-03-21 15:00:00,29.3,14.7,29.52,North,0,5.4,8.3,54,0.00,,,0.00,WUHU216HW,2013-03-21 20:00:00,
2013-03-21 15:05:00,29.2,14.6,29.52,West,270,3.8,7.6,54,0.00,,,0.00,WUHU216HW,2013-03-21 20:05:00,
2013-03-21 15:10:00,29.3,14.3,29.52,WNW,293,9.4,9.4,53,0.00,,,0.00,WUHU216HW,2013-03-21 20:10:00,
2013-03-21 15:15:00,29.0,14.0,29.52,West,270,7.6,9.4,53,0.00,,,0.00,WUHU216HW,2013-03-21 20:15:00,
2013-03-21 15:20:00,28.8,13.8,29.52,WSW,248,3.4,9.4,53,0.00,,,0.00,WUHU216HW,2013-03-21 20:20:00,
2013-03-21 15:25:00,28.8,14.2,29.52,WSW,248,7.6,7.6,54,0.00,,,0.00,WUHU216HW,2013-03-21 20:25:00,
2013-03-21 15:30:00,29.2,14.6,29.52,West,270,8.3,8.3,54,0.00,,,0.00,WUHU216HW,2013-03-21 20:30:00,
2013-03-21 15:35:00,29.3,13.9,29.52,WNW,293,4.7,8.3,52,0.00,,,0.00,WUHU216HW,2013-03-21 20:35:00,
2013-03-21 15:40:00,29.7,14.2,29.52,WNW,293,6.9,8.3,52,0.00,,,0.00,WUHU216HW,2013-03-21 20:40:00,
2013-03-21 15:45:00,29.9,14.4,29.51,NW,315,3.4,7.2,52,0.00,,,0.00,WUHU216HW,2013-03-21 20:45:00,
2013-03-21 15:50:00,29.5,14.0,29.51,West,270,7.2,7.6,52,0.00,,,0.00,WUHU216HW,2013-03-21 20:50:00,
2013-03-21 15:55:00,29.3,13.9,29.52,WNW,293,6.3,8.5,52,0.00,,,0.00,WUHU216HW,2013-03-21 20:55:00,
2013-03-21 16:00:00,29.2,13.3,29.51,NNW,338,3.4,8.5,51,0.00,,,0.00,WUHU216HW,2013-03-21 21:00:00,
2013-03-21 16:05:00,29.2,13.7,29.51,WSW,248,3.4,6.5,52,0.00,,,0.00,WUHU216HW,2013-03-21 21:05:00,
2013-03-21 16:10:00,28.8,13.4,29.51,WSW,248,5.8,6.5,52,0.00,,,0.00,WUHU216HW,2013-03-21 21:10:00,
2013-03-21 16:15:00,28.4,13.1,29.51,WSW,248,2.5,6.5,52,0.00,,,0.00,WUHU216HW,2013-03-21 21:15:00,
2013-03-21 16:20:00,28.8,13.4,29.51,West,270,3.4,6.5,52,0.00,,,0.00,WUHU216HW,2013-03-21 21:20:00,
2013-03-21 16:25:00,28.4,13.1,29.51,WSW,248,7.2,9.2,52,0.00,,,0.00,WUHU216HW,2013-03-21 21:25:00,
2013-03-21 16:30:00,28.3,12.9,29.51,NW,315,8.5,9.2,52,0.00,,,0.00,WUHU216HW,2013-03-21 21:30:00,
2013-03-21 16:35:00,28.8,13.4,29.51,West,270,4.7,8.5,52,0.00,,,0.00,WUHU216HW,2013-03-21 21:35:00,
2013-03-21 16:40:00,29.2,13.7,29.51,NNE,23,2.2,8.5,52,0.00,,,0.00,WUHU216HW,2013-03-21 21:40:00,
2013-03-21 16:45:00,29.5,13.2,29.51,West,270,4.7,8.9,50,0.00,,,0.00,WUHU216HW,2013-03-21 21:45:00,
2013-03-21 16:50:00,29.3,12.5,29.51,WSW,248,4.7,8.9,49,0.00,,,0.00,WUHU216HW,2013-03-21 21:50:00,
2013-03-21 16:55:00,29.2,12.4,29.51,West,270,4.0,6.9,49,0.00,,,0.00,WUHU216HW,2013-03-21 21:55:00,
2013-03-21 17:00:00,29.3,13.1,29.51,WSW,248,3.1,5.4,50,0.00,,,0.00,WUHU216HW,2013-03-21 22:00:00,
2013-03-21 17:05:00,29.5,13.6,29.51,NNW,338,3.6,5.4,51,0.00,,,0.00,WUHU216HW,2013-03-21 22:05:00,
2013-03-21 17:10:00,29.7,12.9,29.51,WSW,248,3.1,7.6,49,0.00,,,0.00,WUHU216HW,2013-03-21 22:10:00,
2013-03-21 17:15:00,29.2,12.4,29.51,WSW,248,5.6,7.6,49,0.00,,,0.00,WUHU216HW,2013-03-21 22:15:00,
2013-03-21 17:20:00,28.6,12.8,29.51,WSW,248,2.7,7.6,51,0.00,,,0.00,WUHU216HW,2013-03-21 22:20:00,
2013-03-21 17:25:00,28.8,13.0,29.50,NW,315,2.9,9.8,51,0.00,,,0.00,WUHU216HW,2013-03-21 22:25:00,
2013-03-21 17:30:00,28.8,13.0,29.50,NW,315,5.4,9.8,51,0.00,,,0.00,WUHU216HW,2013-03-21 22:30:00,
2013-03-21 17:35:00,29.0,13.1,29.51,WSW,248,2.5,5.4,51,0.00,,,0.00,WUHU216HW,2013-03-21 22:35:00,
2013-03-21 17:40:00,29.2,13.3,29.51,WSW,248,2.0,5.4,51,0.00,,,0.00,WUHU216HW,2013-03-21 22:40:00,
2013-03-21 17:45:00,29.5,13.2,29.51,WSW,248,5.4,5.4,50,0.00,,,0.00,WUHU216HW,2013-03-21 22:45:00,
2013-03-21 17:50:00,29.3,13.5,29.51,WNW,293,3.8,5.4,51,0.00,,,0.00,WUHU216HW,2013-03-21 22:50:00,
2013-03-21 17:55:00,29.3,13.5,29.51,WNW,293,3.8,5.4,51,0.00,,,0.00,WUHU216HW,2013-03-21 22:55:00,
2013-03-21 18:00:00,29.3,13.5,29.51,WNW,293,3.8,3.8,51,0.00,,,0.00,WUHU216HW,2013-03-21 23:00:00,
2013-03-21 18:05:00,28.6,12.8,29.51,WSW,248,1.1,3.8,51,0.00,,,0.00,WUHU216HW,2013-03-21 23:05:00,
2013-03-21 18:10:00,29.0,13.1,29.51,WSW,248,2.5,3.8,51,0.00,,,0.00,WUHU216HW,2013-03-21 23:10:00,
2013-03-21 18:15:00,30.8,14.8,29.51,NW,315,3.1,5.4,51,0.00,,,0.00,WUHU216HW,2013-03-21 23:15:00,
2013-03-21 18:20:00,30.6,13.7,29.51,West,270,0.7,5.4,49,0.00,,,0.00,WUHU216HW,2013-03-21 23:20:00,
2013-03-21 18:25:00,29.3,13.1,29.51,NW,315,1.8,3.1,50,0.00,,,0.00,WUHU216HW,2013-03-21 23:25:00,
2013-03-21 18:30:00,28.1,11.9,29.51,WSW,248,2.0,2.5,50,0.00,,,0.00,WUHU216HW,2013-03-21 23:30:00,
2013-03-21 18:35:00,27.0,11.6,29.51,WSW,248,2.2,2.5,52,0.00,,,0.00,WUHU216HW,2013-03-21 23:35:00,
2013-03-21 18:40:00,26.6,11.7,29.50,WSW,248,2.9,2.9,53,0.00,,,0.00,WUHU216HW,2013-03-21 23:40:00,
2013-03-21 18:45:00,26.3,11.8,29.51,WSW,248,2.5,2.9,54,0.00,,,0.00,WUHU216HW,2013-03-21 23:45:00,
2013-03-21 18:50:00,25.9,11.9,29.51,SW,225,1.1,2.9,55,0.00,,,0.00,WUHU216HW,2013-03-21 23:50:00,
2013-03-21 18:55:00,25.7,11.7,29.51,WNW,293,0.4,2.5,55,0.00,,,0.00,WUHU216HW,2013-03-21 23:55:00,
2013-03-21 19:00:00,25.4,11.3,29.51,West,270,1.1,1.6,55,0.00,,,0.00,WUHU216HW,2013-03-22 00:00:00,
2013-03-21 19:05:00,25.0,11.4,29.51,WSW,248,1.8,1.8,56,0.00,,,0.00,WUHU216HW,2013-03-22 00:05:00,
2013-03-21 19:10:00,24.8,11.4,29.51,WSW,248,1.1,1.8,56,0.00,,,0.00,WUHU216HW,2013-03-22 00:10:00,
2013-03-21 19:15:00,24.5,11.3,29.51,WSW,248,2.9,2.9,57,0.00,,,0.00,WUHU216HW,2013-03-22 00:15:00,
2013-03-21 19:20:00,24.1,11.4,29.51,WSW,248,1.6,2.9,58,0.00,,,0.00,WUHU216HW,2013-03-22 00:20:00,
2013-03-21 19:25:00,23.9,11.3,29.51,WSW,248,0.4,2.9,58,0.00,,,0.00,WUHU216HW,2013-03-22 00:25:00,
2013-03-21 19:30:00,23.8,11.1,29.51,WSW,248,0.4,2.2,58,0.00,,,0.00,WUHU216HW,2013-03-22 00:30:00,
2013-03-21 19:35:00,23.6,10.5,29.51,West,270,1.6,2.0,57,0.00,,,0.00,WUHU216HW,2013-03-22 00:35:00,
2013-03-21 19:40:00,23.4,10.7,29.51,West,270,0.4,2.0,58,0.00,,,0.00,WUHU216HW,2013-03-22 00:40:00,
2013-03-21 19:45:00,23.4,10.7,29.51,West,270,0.0,1.6,58,0.00,,,0.00,WUHU216HW,2013-03-22 00:45:00,
2013-03-21 19:50:00,22.9,9.8,29.51,WSW,248,0.4,1.1,57,0.00,,,0.00,WUHU216HW,2013-03-22 00:50:00,
2013-03-21 19:55:00,22.5,9.5,29.51,NW,315,2.5,2.5,57,0.00,,,0.00,WUHU216HW,2013-03-22 00:55:00,
2013-03-21 20:00:00,22.0,9.4,29.51,NW,315,1.3,2.5,58,0.00,,,0.00,WUHU216HW,2013-03-22 01:00:00,
2013-03-21 20:05:00,20.9,8.4,29.51,WNW,293,2.2,2.5,58,0.00,,,0.00,WUHU216HW,2013-03-22 01:05:00,
2013-03-21 20:10:00,20.7,8.6,29.51,NW,315,1.6,2.2,59,0.00,,,0.00,WUHU216HW,2013-03-22 01:10:00,
2013-03-21 20:15:00,19.8,8.1,29.51,NNW,338,2.5,2.7,60,0.00,,,0.00,WUHU216HW,2013-03-22 01:15:00,
2013-03-21 20:20:00,19.8,8.5,29.52,NW,315,2.5,2.7,61,0.00,,,0.00,WUHU216HW,2013-03-22 01:20:00,
2013-03-21 20:25:00,19.8,8.5,29.52,West,270,2.2,2.7,61,0.00,,,0.00,WUHU216HW,2013-03-22 01:25:00,
2013-03-21 20:30:00,20.0,8.7,29.52,WNW,293,2.7,3.4,61,0.00,,,0.00,WUHU216HW,2013-03-22 01:30:00,
2013-03-21 20:35:00,20.2,8.8,29.52,NW,315,2.7,3.4,61,0.00,,,0.00,WUHU216HW,2013-03-22 01:35:00,
2013-03-21 20:40:00,20.2,8.8,29.53,WNW,293,3.6,3.6,61,0.00,,,0.00,WUHU216HW,2013-03-22 01:40:00,
2013-03-21 20:45:00,20.2,8.8,29.52,NW,315,2.2,3.6,61,0.00,,,0.00,WUHU216HW,2013-03-22 01:45:00,
2013-03-21 20:50:00,20.2,8.8,29.52,WNW,293,2.5,3.6,61,0.00,,,0.00,WUHU216HW,2013-03-22 01:50:00,
2013-03-21 20:55:00,20.2,9.2,29.52,WNW,293,2.9,2.9,62,0.00,,,0.00,WUHU216HW,2013-03-22 01:55:00,
2013-03-21 21:00:00,20.0,8.7,29.53,NW,315,1.3,3.4,61,0.00,,,0.00,WUHU216HW,2013-03-22 02:00:00,
2013-03-21 21:05:00,19.6,8.3,29.53,NW,315,1.6,3.4,61,0.00,,,0.00,WUHU216HW,2013-03-22 02:05:00,
2013-03-21 21:10:00,19.3,8.3,29.53,NW,315,2.5,2.5,62,0.00,,,0.00,WUHU216HW,2013-03-22 02:10:00,
2013-03-21 21:15:00,19.4,8.7,29.53,WNW,293,3.4,3.4,63,0.00,,,0.00,WUHU216HW,2013-03-22 02:15:00,
2013-03-21 21:20:00,19.4,8.7,29.53,WNW,293,3.1,3.4,63,0.00,,,0.00,WUHU216HW,2013-03-22 02:20:00,
2013-03-21 21:25:00,19.4,8.7,29.53,WNW,293,2.0,3.4,63,0.00,,,0.00,WUHU216HW,2013-03-22 02:25:00,
2013-03-21 21:30:00,19.3,8.3,29.53,WNW,293,3.4,3.4,62,0.00,,,0.00,WUHU216HW,2013-03-22 02:30:00,
2013-03-21 21:35:00,19.1,8.5,29.53,West,270,1.8,3.4,63,0.00,,,0.00,WUHU216HW,2013-03-22 02:35:00,
2013-03-21 21:40:00,18.9,8.3,29.53,WNW,293,2.7,3.4,63,0.00,,,0.00,WUHU216HW,2013-03-22 02:40:00,
2013-03-21 21:45:00,18.7,7.7,29.54,WNW,293,2.5,2.7,62,0.00,,,0.00,WUHU216HW,2013-03-22 02:45:00,
2013-03-21 21:50:00,18.9,8.3,29.54,WNW,293,3.1,3.1,63,0.00,,,0.00,WUHU216HW,2013-03-22 02:50:00,
2013-03-21 21:55:00,18.9,8.3,29.53,West,270,1.1,3.4,63,0.00,,,0.00,WUHU216HW,2013-03-22 02:55:00,
2013-03-21 22:00:00,18.9,8.7,29.53,WNW,293,2.7,3.4,64,0.00,,,0.00,WUHU216HW,2013-03-22 03:00:00,
2013-03-21 22:05:00,18.9,8.7,29.53,West,270,0.9,3.4,64,0.00,,,0.00,WUHU216HW,2013-03-22 03:05:00,
2013-03-21 22:10:00,18.7,8.5,29.53,West,270,2.2,2.7,64,0.00,,,0.00,WUHU216HW,2013-03-22 03:10:00,
2013-03-21 22:15:00,18.7,8.1,29.53,WNW,293,1.8,2.2,63,0.00,,,0.00,WUHU216HW,2013-03-22 03:15:00,
2013-03-21 22:20:00,18.7,8.5,29.53,West,270,1.1,2.2,64,0.00,,,0.00,WUHU216HW,2013-03-22 03:20:00,
2013-03-21 22:25:00,18.5,9.0,29.53,WSW,248,3.4,3.4,66,0.00,,,0.00,WUHU216HW,2013-03-22 03:25:00,
2013-03-21 22:30:00,18.5,8.6,29.53,WNW,293,1.8,3.4,65,0.00,,,0.00,WUHU216HW,2013-03-22 03:30:00,
2013-03-21 22:35:00,18.4,8.5,29.54,NW,315,2.9,3.4,65,0.00,,,0.00,WUHU216HW,2013-03-22 03:35:00,
2013-03-21 22:40:00,18.4,8.1,29.53,WNW,293,4.7,4.7,64,0.00,,,0.00,WUHU216HW,2013-03-22 03:40:00,
2013-03-21 22:45:00,18.5,8.3,29.54,WNW,293,3.4,4.7,64,0.00,,,0.00,WUHU216HW,2013-03-22 03:45:00,
2013-03-21 22:50:00,18.5,8.3,29.53,NW,315,3.4,4.7,64,0.00,,,0.00,WUHU216HW,2013-03-22 03:50:00,
2013-03-21 22:55:00,18.7,8.5,29.53,WNW,293,3.4,4.3,64,0.00,,,0.00,WUHU216HW,2013-03-22 03:55:00,
2013-03-21 23:00:00,18.7,8.5,29.53,NW,315,2.7,4.5,64,0.00,,,0.00,WUHU216HW,2013-03-22 04:00:00,
2013-03-21 23:05:00,18.7,8.5,29.53,NW,315,2.5,4.5,64,0.00,,,0.00,WUHU216HW,2013-03-22 04:05:00,
2013-03-21 23:10:00,18.7,8.5,29.53,WNW,293,2.7,3.6,64,0.00,,,0.00,WUHU216HW,2013-03-22 04:10:00,
2013-03-21 23:15:00,18.7,8.5,29.54,WNW,293,1.8,2.7,64,0.00,,,0.00,WUHU216HW,2013-03-22 04:15:00,
2013-03-21 23:20:00,18.5,8.3,29.54,West,270,1.1,2.7,64,0.00,,,0.00,WUHU216HW,2013-03-22 04:20:00,
2013-03-21 23:25:00,18.2,8.0,29.54,SW,225,0.4,1.8,64,0.00,,,0.00,WUHU216HW,2013-03-22 04:25:00,
2013-03-21 23:30:00,18.0,7.8,29.54,WSW,248,2.0,2.0,64,0.00,,,0.00,WUHU216HW,2013-03-22 04:30:00,
2013-03-21 23:35:00,17.5,7.3,29.54,SW,225,1.1,2.0,64,0.00,,,0.00,WUHU216HW,2013-03-22 04:35:00,
2013-03-21 23:40:00,16.9,6.8,29.54,SW,225,0.4,2.0,64,0.00,,,0.00,WUHU216HW,2013-03-22 04:40:00,
2013-03-21 23:45:00,16.6,6.4,29.54,WSW,248,1.3,1.8,64,0.00,,,0.00,WUHU216HW,2013-03-22 04:45:00,
2013-03-21 23:50:00,15.5,5.4,29.54,WSW,248,1.3,1.8,64,0.00,,,0.00,WUHU216HW,2013-03-22 04:50:00,
2013-03-21 23:55:00,14.9,5.2,29.54,West,270,0.9,1.6,65,0.00,,,0.00,WUHU216HW,2013-03-22 04:55:00,